CFG4VP EDDF-LGKO

Flight info

Callsign CFG4VP
Flight time N/A
Altitude 35000
Route CINDY6F/25C CINDY Z74 LAMPU DCT NOMBO Y161 MAH DCT VAVOR DCT RADIZ DCT KUSIB DCT MEDUX UM867 KOGAT DCT ERANA DCT TSL DCT MES UN139 LURUS L995 KOPAR
Aircraft A321/M-SDE3FGHIRWY/LB1

Departure

Time 2026-05-04 13:07
Airport Frankfurt Main Airport (EDDF)

Arrival

Time N/A
Airport Kos International Airport "Ippokratis" (LGKO)
Time Latitude Longitude Altitude Speed Heading
2026-05-04 12:37 50.04883 8.57441 356 ft 0 kts 217°
2026-05-04 12:56 50.04896 8.57457 365 ft 4 kts 218°
2026-05-04 12:56 50.04918 8.57482 364 ft 4 kts 210°
2026-05-04 12:56 50.04940 8.57494 363 ft 4 kts 156°
2026-05-04 12:56 50.04946 8.57489 360 ft 3 kts 115°
2026-05-04 12:57 50.04935 8.57526 365 ft 4 kts 114°
2026-05-04 12:57 50.04924 8.57564 358 ft 4 kts 114°
2026-05-04 12:57 50.04913 8.57603 358 ft 4 kts 114°
2026-05-04 12:57 50.04907 8.57624 359 ft 0 kts 114°
2026-05-04 13:00 50.04907 8.57625 356 ft 1 kts 114°
2026-05-04 13:00 50.04896 8.57663 361 ft 7 kts 114°
2026-05-04 13:01 50.04884 8.57702 362 ft 4 kts 114°
2026-05-04 13:01 50.04864 8.57774 361 ft 9 kts 114°
2026-05-04 13:01 50.04839 8.57859 361 ft 7 kts 114°
2026-05-04 13:01 50.04807 8.57911 360 ft 7 kts 140°
2026-05-04 13:02 50.04785 8.57970 361 ft 6 kts 97°
2026-05-04 13:02 50.04798 8.58033 364 ft 6 kts 68°
2026-05-04 13:02 50.04813 8.58093 358 ft 6 kts 70°
2026-05-04 13:02 50.04836 8.58190 362 ft 12 kts 70°
2026-05-04 13:03 50.04871 8.58339 364 ft 17 kts 70°
2026-05-04 13:03 50.04916 8.58533 362 ft 18 kts 70°
2026-05-04 13:03 50.04899 8.58677 361 ft 13 kts 151°
2026-05-04 13:03 50.04827 8.58719 367 ft 9 kts 160°
2026-05-04 13:04 50.04781 8.58745 366 ft 5 kts 160°
2026-05-04 13:04 50.04733 8.58771 370 ft 11 kts 166°
2026-05-04 13:04 50.04629 8.58757 370 ft 20 kts 192°
2026-05-04 13:04 50.04520 8.58652 371 ft 13 kts 209°
2026-05-04 13:05 50.04492 8.58606 370 ft 4 kts 248°
2026-05-04 13:05 50.04490 8.58597 370 ft 0 kts 249°
2026-05-04 13:06 50.04489 8.58595 370 ft 2 kts 249°
2026-05-04 13:06 50.04439 8.58384 372 ft 53 kts 249°
2026-05-04 13:06 50.04234 8.57530 366 ft 113 kts 250°
2026-05-04 13:06 50.03905 8.56148 358 ft 158 kts 250°
2026-05-04 13:07 50.03477 8.54381 481 ft 181 kts 248°
2026-05-04 13:07 50.03076 8.52653 1403 ft 161 kts 249°
2026-05-04 13:07 50.02683 8.50987 1900 ft 168 kts 248°
2026-05-04 13:07 50.02096 8.49392 2221 ft 184 kts 217°
2026-05-04 13:08 50.00825 8.48844 2423 ft 203 kts 181°
2026-05-04 13:08 49.99383 8.49049 2766 ft 214 kts 172°
2026-05-04 13:08 49.97994 8.49961 3265 ft 222 kts 147°
2026-05-04 13:08 49.96961 8.51814 3803 ft 229 kts 122°
2026-05-04 13:09 49.96168 8.53973 4106 ft 240 kts 121°
2026-05-04 13:09 49.95315 8.56317 4360 ft 259 kts 121°
2026-05-04 13:09 49.94438 8.58887 4793 ft 277 kts 112°
2026-05-04 13:09 49.94009 8.61832 5489 ft 284 kts 94°
2026-05-04 13:10 49.93901 8.64908 6238 ft 287 kts 95°
2026-05-04 13:10 49.93469 8.67927 6996 ft 289 kts 114°
2026-05-04 13:10 49.92455 8.70583 7822 ft 285 kts 133°
2026-05-04 13:10 49.90996 8.72620 8629 ft 281 kts 148°
2026-05-04 13:11 49.89411 8.74395 9469 ft 282 kts 142°
2026-05-04 13:11 49.88065 8.76622 10233 ft 286 kts 128°
2026-05-04 13:11 49.86998 8.79342 10549 ft 307 kts 122°
2026-05-04 13:11 49.85911 8.82328 10678 ft 329 kts 122°
2026-05-04 13:12 49.84771 8.85503 11009 ft 342 kts 121°
2026-05-04 13:12 49.83610 8.88752 11601 ft 347 kts 121°
2026-05-04 13:12 49.82432 8.92043 12218 ft 351 kts 122°
2026-05-04 13:12 49.81236 8.95368 12799 ft 356 kts 122°
2026-05-04 13:13 49.80020 8.98726 13423 ft 360 kts 122°
2026-05-04 13:13 49.78783 9.02120 14022 ft 363 kts 122°
2026-05-04 13:13 49.77535 9.05538 14570 ft 367 kts 122°
2026-05-04 13:13 49.76364 9.09078 15121 ft 373 kts 114°
2026-05-04 13:14 49.75593 9.12934 15639 ft 379 kts 106°
2026-05-04 13:14 49.74812 9.16826 16160 ft 379 kts 115°
2026-05-04 13:14 49.73580 9.20425 16678 ft 379 kts 127°
2026-05-04 13:14 49.71940 9.23613 17207 ft 380 kts 134°
2026-05-04 13:15 49.70188 9.26687 17736 ft 383 kts 134°
2026-05-04 13:15 49.68424 9.29793 18252 ft 386 kts 134°
2026-05-04 13:15 49.66648 9.32924 18688 ft 389 kts 134°
2026-05-04 13:15 49.64859 9.36080 19119 ft 392 kts 134°
2026-05-04 13:16 49.63054 9.39242 19554 ft 394 kts 136°
2026-05-04 13:16 49.61019 9.42049 19980 ft 392 kts 147°
2026-05-04 13:16 49.58726 9.44296 20418 ft 392 kts 152°
2026-05-04 13:16 49.56365 9.46447 20850 ft 395 kts 153°
2026-05-04 13:17 49.53995 9.48607 21270 ft 398 kts 153°
2026-05-04 13:17 49.51640 9.50755 21698 ft 400 kts 153°
2026-05-04 13:17 49.49241 9.52945 22128 ft 402 kts 153°
2026-05-04 13:17 49.46827 9.55150 22548 ft 405 kts 153°
2026-05-04 13:18 49.44399 9.57362 22974 ft 407 kts 153°
2026-05-04 13:18 49.41953 9.59588 23382 ft 410 kts 153°
2026-05-04 13:18 49.39495 9.61822 23768 ft 412 kts 153°
2026-05-04 13:18 49.37025 9.64063 24112 ft 414 kts 153°
2026-05-04 13:19 49.34572 9.66410 24443 ft 418 kts 147°
2026-05-04 13:19 49.32343 9.69323 24752 ft 425 kts 139°
2026-05-04 13:19 49.30245 9.72543 25071 ft 428 kts 139°
2026-05-04 13:19 49.28136 9.75777 25393 ft 430 kts 139°
2026-05-04 13:20 49.26011 9.79025 25731 ft 433 kts 139°
2026-05-04 13:20 49.23874 9.82282 26039 ft 435 kts 139°
2026-05-04 13:20 49.21724 9.85551 26363 ft 437 kts 139°
2026-05-04 13:20 49.19560 9.88834 26676 ft 439 kts 139°
2026-05-04 13:21 49.17386 9.92131 27001 ft 441 kts 139°
2026-05-04 13:21 49.15201 9.95444 27303 ft 444 kts 139°
2026-05-04 13:21 49.13004 9.98773 27612 ft 446 kts 139°
2026-05-04 13:21 49.10795 10.02112 27933 ft 448 kts 139°
2026-05-04 13:22 49.08571 10.05463 28208 ft 450 kts 139°
2026-05-04 13:22 49.06341 10.08821 28452 ft 453 kts 139°
2026-05-04 13:22 49.04071 10.12169 28719 ft 455 kts 140°
2026-05-04 13:22 49.01759 10.15473 28990 ft 457 kts 141°
2026-05-04 13:23 48.99414 10.18753 29235 ft 459 kts 141°
2026-05-04 13:23 48.97049 10.22031 29489 ft 461 kts 141°
2026-05-04 13:23 48.94675 10.25328 29762 ft 463 kts 141°
2026-05-04 13:23 48.92305 10.28642 30149 ft 462 kts 141°
2026-05-04 13:24 48.89951 10.31957 30482 ft 461 kts 141°
2026-05-04 13:24 48.87608 10.35270 30814 ft 460 kts 141°
2026-05-04 13:24 48.85265 10.38580 31154 ft 460 kts 141°
2026-05-04 13:25 48.80639 10.45270 31827 ft 460 kts 138°
2026-05-04 13:25 48.78427 10.48758 32146 ft 460 kts 137°
2026-05-04 13:25 48.76248 10.52323 32461 ft 459 kts 136°
2026-05-04 13:25 48.74097 10.55890 32816 ft 458 kts 136°
2026-05-04 13:26 48.71941 10.59445 33175 ft 457 kts 136°
2026-05-04 13:26 48.69777 10.62963 33511 ft 456 kts 137°
2026-05-04 13:26 48.67598 10.66455 33838 ft 455 kts 137°
2026-05-04 13:26 48.65416 10.69920 34147 ft 455 kts 137°
2026-05-04 13:27 48.63231 10.73371 34420 ft 454 kts 137°
2026-05-04 13:27 48.61044 10.76806 34694 ft 453 kts 137°
2026-05-04 13:27 48.58859 10.80245 34926 ft 454 kts 137°
2026-05-04 13:27 48.56685 10.83689 34985 ft 452 kts 137°
2026-05-04 13:28 48.52421 10.90519 34992 ft 450 kts 136°
2026-05-04 13:28 48.48129 10.97379 34975 ft 450 kts 137°
2026-05-04 13:29 48.43793 11.04182 34974 ft 450 kts 137°
2026-05-04 13:29 48.39436 11.10939 34975 ft 450 kts 137°
2026-05-04 13:30 48.35077 11.17680 34974 ft 450 kts 137°
2026-05-04 13:30 48.30719 11.24420 34961 ft 450 kts 137°
2026-05-04 13:31 48.26471 11.31317 34966 ft 452 kts 129°
2026-05-04 13:31 48.23194 11.39418 34965 ft 455 kts 123°
2026-05-04 13:32 48.20020 11.47634 34963 ft 455 kts 123°
2026-05-04 13:32 48.16830 11.55825 34964 ft 455 kts 123°
2026-05-04 13:33 48.13676 11.63914 34953 ft 455 kts 123°
2026-05-04 13:33 48.10485 11.72089 34950 ft 455 kts 123°
2026-05-04 13:34 48.07295 11.80246 34948 ft 455 kts 123°
2026-05-04 13:34 48.04102 11.88404 34945 ft 454 kts 123°
2026-05-04 13:35 47.99297 12.00602 34938 ft 453 kts 123°
2026-05-04 13:36 47.96113 12.08629 34946 ft 453 kts 123°
2026-05-04 13:36 47.92539 12.16272 34934 ft 447 kts 136°
2026-05-04 13:37 47.87914 12.22379 34930 ft 444 kts 143°
2026-05-04 13:37 47.83179 12.28278 34929 ft 444 kts 143°
2026-05-04 13:38 47.79214 12.33227 34926 ft 444 kts 143°
2026-05-04 13:38 47.74489 12.39141 34926 ft 444 kts 142°
2026-05-04 13:39 47.69757 12.45034 34928 ft 444 kts 143°
2026-05-04 13:39 47.65019 12.50899 34922 ft 443 kts 143°
2026-05-04 13:40 47.60600 12.57294 34933 ft 446 kts 133°
2026-05-04 13:40 47.56561 12.64204 34912 ft 447 kts 133°
2026-05-04 13:41 47.52481 12.71143 34929 ft 447 kts 133°
2026-05-04 13:41 47.48390 12.78083 34941 ft 448 kts 133°
2026-05-04 13:42 47.42241 12.88476 34940 ft 448 kts 134°
2026-05-04 13:42 47.38133 12.95388 34958 ft 448 kts 134°
2026-05-04 13:43 47.34017 13.02292 34953 ft 448 kts 134°
2026-05-04 13:43 47.29899 13.09193 34971 ft 448 kts 134°
2026-05-04 13:44 47.25781 13.16090 34972 ft 449 kts 134°
2026-05-04 13:44 47.21655 13.22980 34986 ft 448 kts 134°
2026-05-04 13:45 47.17529 13.29843 34998 ft 448 kts 134°
2026-05-04 13:45 47.13390 13.36684 34990 ft 448 kts 134°
2026-05-04 13:46 47.09245 13.43538 35004 ft 449 kts 134°
2026-05-04 13:46 47.05093 13.50394 35011 ft 449 kts 134°
2026-05-04 13:47 47.00937 13.57239 35019 ft 449 kts 134°
2026-05-04 13:47 46.96778 13.64076 35018 ft 450 kts 134°
2026-05-04 13:48 46.92612 13.70913 35009 ft 451 kts 134°
2026-05-04 13:48 46.88420 13.77755 35016 ft 452 kts 134°
2026-05-04 13:49 46.84214 13.84600 35019 ft 453 kts 134°
2026-05-04 13:49 46.80007 13.91443 35025 ft 453 kts 134°
2026-05-04 13:50 46.75820 13.98229 35022 ft 453 kts 134°
2026-05-04 13:50 46.71594 14.05049 35019 ft 454 kts 134°
2026-05-04 13:51 46.67366 14.11872 35016 ft 454 kts 134°
2026-05-04 13:51 46.63139 14.18693 35016 ft 454 kts 134°
2026-05-04 13:52 46.56768 14.28893 35014 ft 455 kts 134°
2026-05-04 13:53 46.52504 14.35700 35016 ft 456 kts 134°
2026-05-04 13:53 46.48236 14.42513 35017 ft 456 kts 134°
2026-05-04 13:54 46.41816 14.52727 35028 ft 457 kts 134°
2026-05-04 13:55 46.35394 14.62909 35054 ft 456 kts 135°
2026-05-04 13:55 46.28965 14.73038 35048 ft 458 kts 135°
2026-05-04 13:56 46.24646 14.79838 35059 ft 459 kts 134°
2026-05-04 13:57 46.18151 14.90025 35040 ft 460 kts 134°
2026-05-04 13:58 46.09488 15.03563 35037 ft 459 kts 134°
2026-05-04 13:58 46.02981 15.13680 35035 ft 459 kts 134°
2026-05-04 13:59 45.98635 15.20396 35027 ft 458 kts 134°
2026-05-04 14:00 45.92121 15.30470 35010 ft 459 kts 134°
2026-05-04 14:00 45.85593 15.40526 35014 ft 460 kts 134°
2026-05-04 14:01 45.81226 15.47232 35016 ft 460 kts 134°
2026-05-04 14:02 45.74656 15.57272 35019 ft 460 kts 134°
2026-05-04 14:02 45.70296 15.63913 35028 ft 461 kts 134°
2026-05-04 14:03 45.65906 15.70595 35029 ft 461 kts 134°
2026-05-04 14:03 45.61516 15.77268 35032 ft 461 kts 134°
2026-05-04 14:04 45.54925 15.87255 35037 ft 461 kts 134°
2026-05-04 14:04 45.50516 15.93889 35037 ft 461 kts 134°
2026-05-04 14:05 45.43900 16.03829 35029 ft 461 kts 134°
2026-05-04 14:06 45.39490 16.10453 35021 ft 461 kts 134°
2026-05-04 14:06 45.35067 16.17077 35025 ft 462 kts 134°
2026-05-04 14:07 45.30629 16.23691 35025 ft 462 kts 134°
2026-05-04 14:07 45.26215 16.30257 35036 ft 463 kts 134°
2026-05-04 14:08 45.21778 16.36855 35037 ft 462 kts 134°
2026-05-04 14:08 45.17329 16.43445 35034 ft 462 kts 134°
2026-05-04 14:09 45.10713 16.53404 35034 ft 463 kts 131°
2026-05-04 14:10 45.04307 16.63638 35029 ft 463 kts 131°
2026-05-04 14:10 45.00011 16.70429 35035 ft 463 kts 131°
2026-05-04 14:11 44.95685 16.77179 35032 ft 463 kts 131°
2026-05-04 14:11 44.89178 16.87277 35049 ft 464 kts 131°
2026-05-04 14:12 44.84844 16.94015 35041 ft 464 kts 131°
2026-05-04 14:13 44.78328 17.04106 35049 ft 464 kts 131°
2026-05-04 14:13 44.73977 17.10804 35050 ft 464 kts 131°
2026-05-04 14:14 44.69657 17.17473 35054 ft 464 kts 131°
2026-05-04 14:14 44.63116 17.27508 35054 ft 464 kts 131°
2026-05-04 14:15 44.54384 17.40838 35055 ft 464 kts 131°
2026-05-04 14:16 44.47835 17.50832 35058 ft 464 kts 131°
2026-05-04 14:17 44.41267 17.60779 35067 ft 463 kts 131°
2026-05-04 14:18 44.34695 17.70700 35059 ft 464 kts 131°
2026-05-04 14:19 44.25928 17.83913 35074 ft 464 kts 131°
2026-05-04 14:19 44.21534 17.90502 35068 ft 464 kts 132°
2026-05-04 14:20 44.17134 17.97080 35069 ft 464 kts 132°
2026-05-04 14:20 44.12734 18.03650 35058 ft 464 kts 132°
2026-05-04 14:21 44.06137 18.13453 35072 ft 465 kts 132°
2026-05-04 14:21 44.01717 18.20020 35075 ft 465 kts 132°
2026-05-04 14:22 43.97287 18.26575 35074 ft 465 kts 132°
2026-05-04 14:22 43.92857 18.33127 35078 ft 465 kts 132°
2026-05-04 14:23 43.86199 18.42929 35068 ft 466 kts 132°
2026-05-04 14:24 43.81757 18.49460 35067 ft 466 kts 132°
2026-05-04 14:24 43.77300 18.55995 35071 ft 467 kts 132°
2026-05-04 14:25 43.72832 18.62519 35083 ft 467 kts 132°
2026-05-04 14:25 43.66124 18.72294 35090 ft 467 kts 132°
2026-05-04 14:26 43.61647 18.78798 35083 ft 467 kts 132°
2026-05-04 14:26 43.57167 18.85295 35079 ft 468 kts 132°
2026-05-04 14:27 43.52710 18.91746 35086 ft 468 kts 132°
2026-05-04 14:27 43.48184 18.98284 35080 ft 469 kts 132°
2026-05-04 14:28 43.44441 19.03669 35078 ft 469 kts 132°
2026-05-04 14:28 43.39196 19.11197 35079 ft 469 kts 132°
2026-05-04 14:29 43.30886 19.23089 35085 ft 470 kts 132°
2026-05-04 14:30 43.26366 19.29556 35084 ft 470 kts 132°
2026-05-04 14:31 43.19554 19.39247 35088 ft 471 kts 132°
2026-05-04 14:32 43.10472 19.52100 35102 ft 471 kts 132°
2026-05-04 14:32 43.05911 19.58547 35098 ft 471 kts 132°
2026-05-04 14:33 43.01349 19.64997 35103 ft 472 kts 132°
2026-05-04 14:33 42.96778 19.71434 35105 ft 472 kts 132°
2026-05-04 14:34 42.92201 19.77847 35111 ft 472 kts 132°
2026-05-04 14:34 42.87612 19.84257 35128 ft 472 kts 132°
2026-05-04 14:35 42.83016 19.90662 35125 ft 473 kts 132°
2026-05-04 14:35 42.78417 19.97069 35128 ft 473 kts 132°
2026-05-04 14:36 42.73898 20.03566 35124 ft 471 kts 126°
2026-05-04 14:36 42.69746 20.10463 35120 ft 471 kts 127°
2026-05-04 14:37 42.65582 20.17345 35130 ft 471 kts 126°
2026-05-04 14:37 42.61407 20.24212 35128 ft 471 kts 126°
2026-05-04 14:38 42.57232 20.31061 35120 ft 471 kts 126°
2026-05-04 14:38 42.53047 20.37917 35113 ft 472 kts 127°
2026-05-04 14:39 42.48858 20.44771 35115 ft 472 kts 126°
2026-05-04 14:39 42.44662 20.51620 35140 ft 472 kts 126°
2026-05-04 14:40 42.38358 20.61873 35133 ft 472 kts 126°
2026-05-04 14:40 42.34146 20.68696 35129 ft 473 kts 126°
2026-05-04 14:41 42.29929 20.75514 35129 ft 473 kts 126°
2026-05-04 14:42 42.21478 20.89153 35139 ft 474 kts 126°
2026-05-04 14:42 42.17243 20.95972 35139 ft 474 kts 126°
2026-05-04 14:43 42.13018 21.02723 35134 ft 474 kts 127°
2026-05-04 14:43 42.08441 21.09127 35134 ft 477 kts 133°
2026-05-04 14:44 42.03614 21.15256 35151 ft 477 kts 133°
2026-05-04 14:44 41.98788 21.21383 35141 ft 477 kts 133°
2026-05-04 14:45 41.93963 21.27489 35129 ft 477 kts 134°
2026-05-04 14:45 41.89133 21.33585 35123 ft 476 kts 134°
2026-05-04 14:46 41.84306 21.39672 35119 ft 476 kts 134°
2026-05-04 14:46 41.79478 21.45745 35104 ft 476 kts 134°
2026-05-04 14:47 41.74639 21.51807 35098 ft 476 kts 134°
2026-05-04 14:47 41.69797 21.57876 35095 ft 477 kts 134°
2026-05-04 14:48 41.64945 21.63940 35091 ft 477 kts 134°
2026-05-04 14:48 41.60086 21.70000 35091 ft 478 kts 134°
2026-05-04 14:49 41.55221 21.76044 35095 ft 478 kts 134°
2026-05-04 14:49 41.50344 21.82088 35125 ft 478 kts 134°
2026-05-04 14:50 41.45473 21.88115 35117 ft 477 kts 134°
2026-05-04 14:50 41.40607 21.94130 35109 ft 477 kts 134°
2026-05-04 14:51 41.35734 22.00148 35106 ft 477 kts 134°
2026-05-04 14:51 41.30863 22.06144 35107 ft 477 kts 134°
2026-05-04 14:52 41.25985 22.12138 35105 ft 477 kts 134°
2026-05-04 14:52 41.21099 22.18116 35130 ft 477 kts 135°
2026-05-04 14:53 41.16216 22.24068 35118 ft 477 kts 135°
2026-05-04 14:53 41.11162 22.29777 35113 ft 477 kts 139°
2026-05-04 14:54 41.05956 22.35231 35099 ft 477 kts 139°
2026-05-04 14:54 41.00775 22.40645 35096 ft 477 kts 139°
2026-05-04 14:55 40.95572 22.46208 35110 ft 477 kts 139°
2026-05-04 14:55 40.90460 22.51712 35112 ft 477 kts 139°
2026-05-04 14:56 40.85275 22.57257 35104 ft 476 kts 139°
2026-05-04 14:56 40.80121 22.62725 35104 ft 475 kts 139°
2026-05-04 14:57 40.75010 22.68251 35110 ft 475 kts 138°
2026-05-04 14:57 40.69986 22.73812 35109 ft 475 kts 137°
2026-05-04 14:58 40.64922 22.79410 35129 ft 475 kts 138°
2026-05-04 14:58 40.59850 22.84968 35138 ft 473 kts 138°
2026-05-04 14:59 40.54790 22.90486 35143 ft 472 kts 139°
2026-05-04 15:00 40.47224 22.98719 35131 ft 470 kts 139°
2026-05-04 15:00 40.42190 23.04194 35126 ft 470 kts 139°
2026-05-04 15:01 40.34636 23.12377 35104 ft 466 kts 139°
2026-05-04 15:01 40.29725 23.17677 35090 ft 455 kts 139°
2026-05-04 15:02 40.24853 23.22946 35091 ft 453 kts 139°
2026-05-04 15:02 40.19979 23.28203 35086 ft 454 kts 139°
2026-05-04 15:03 40.15059 23.33491 35087 ft 461 kts 139°
2026-05-04 15:03 40.10096 23.38814 35081 ft 462 kts 139°
2026-05-04 15:04 40.05123 23.44134 35106 ft 462 kts 139°
2026-05-04 15:04 40.00171 23.49430 35118 ft 458 kts 139°
2026-05-04 15:05 39.95289 23.54644 35114 ft 455 kts 139°
2026-05-04 15:05 39.90366 23.59890 35094 ft 455 kts 139°
2026-05-04 15:06 39.85493 23.65066 35077 ft 455 kts 139°
2026-05-04 15:07 39.78115 23.72887 35073 ft 456 kts 139°
2026-05-04 15:07 39.73192 23.78100 35108 ft 456 kts 139°
2026-05-04 15:08 39.68282 23.83281 35112 ft 454 kts 139°
2026-05-04 15:08 39.63382 23.88434 35104 ft 453 kts 139°
2026-05-04 15:09 39.58487 23.93585 35090 ft 454 kts 139°
2026-05-04 15:09 39.53595 23.98725 35087 ft 454 kts 139°
2026-05-04 15:10 39.46237 24.06440 35084 ft 454 kts 139°
2026-05-04 15:11 39.38874 24.14121 35107 ft 453 kts 140°
2026-05-04 15:11 39.33995 24.19208 35086 ft 454 kts 140°
2026-05-04 15:12 39.29071 24.24334 35082 ft 456 kts 140°
2026-05-04 15:12 39.24114 24.29465 35081 ft 457 kts 140°
2026-05-04 15:13 39.19156 24.34593 35087 ft 457 kts 140°
2026-05-04 15:13 39.14198 24.39727 35106 ft 457 kts 140°
2026-05-04 15:14 39.09237 24.44851 35104 ft 457 kts 140°
2026-05-04 15:14 39.04267 24.49968 35094 ft 459 kts 140°
2026-05-04 15:15 38.99279 24.55098 35093 ft 460 kts 140°
2026-05-04 15:15 38.94280 24.60235 35097 ft 460 kts 140°